This is the latest recevied weather packets stored in our database for station/object KI5NXU. If no packets are shown the sender has not sent any weather packets the latest 1 day(s).
| Time | Temp. | Humidity | Pressure | Rain* | Wind** | Luminosity | Snow |
|---|---|---|---|---|---|---|---|
| 1777983127 | 22.22° C | 80% | 1003 hPa | 0 mm | 4.92 m/s, 219° | 20 W/m² | - |
| 1777982823 | 21.67° C | 80% | 1002.6 hPa | 0 mm | 6.26 m/s, 201° | 17 W/m² | - |
| 1777982519 | 21.67° C | 81% | 1002.6 hPa | 0 mm | 3.58 m/s, 215° | 12 W/m² | - |
| 1777982213 | 21.67° C | 81% | 1002.7 hPa | 0 mm | 4.47 m/s, 218° | 7 W/m² | - |
| 1777981911 | 22.22° C | 80% | 1002.7 hPa | 0 mm | 4.92 m/s, 214° | 4 W/m² | - |
| 1777981608 | 22.22° C | 80% | 1002.5 hPa | 0 mm | 5.81 m/s, 224° | 1 W/m² | - |
| 1777981304 | 22.22° C | 80% | 1002.4 hPa | 0 mm | 4.47 m/s, 213° | 0 W/m² | - |
| 1777981001 | 22.22° C | 80% | 1002.3 hPa | 0 mm | 5.81 m/s, 205° | 0 W/m² | - |
| 1777980697 | 22.22° C | 79% | 1002.5 hPa | 0 mm | 5.36 m/s, 221° | 0 W/m² | - |
| 1777980393 | 22.22° C | 79% | 1002.2 hPa | 0 mm | 5.81 m/s, 217° | 0 W/m² | - |
| 1777980092 | 22.22° C | 80% | 1002.4 hPa | 0 mm | 5.36 m/s, 221° | 0 W/m² | - |
| 1777979785 | 22.22° C | 79% | 1002.3 hPa | 0 mm | 5.36 m/s, 225° | 0 W/m² | - |
| 1777979481 | 22.22° C | 79% | 1002.4 hPa | 0 mm | 5.81 m/s, 223° | 0 W/m² | - |
| 1777979178 | 22.78° C | 78% | 1002.2 hPa | 0 mm | 5.81 m/s, 208° | 0 W/m² | - |
| 1777978875 | 22.78° C | 78% | 1002.2 hPa | 0 mm | 7.15 m/s, 209° | 0 W/m² | - |
| 1777978572 | 22.78° C | 78% | 1002.3 hPa | 0 mm | 4.92 m/s, 218° | 0 W/m² | - |
| 1777978267 | 22.78° C | 79% | 1002.4 hPa | 0 mm | 5.36 m/s, 210° | 0 W/m² | - |
| 1777977965 | 22.78° C | 79% | 1002.4 hPa | 0 mm | 6.71 m/s, 205° | 0 W/m² | - |
| 1777977662 | 22.78° C | 79% | 1002.1 hPa | 0 mm | 5.81 m/s, 217° | 0 W/m² | - |
| 1777977358 | 22.78° C | 79% | 1002.3 hPa | 0 mm | 5.36 m/s, 212° | 0 W/m² | - |
| 1777977056 | 22.22° C | 79% | 1002.3 hPa | 0 mm | 4.47 m/s, 213° | 0 W/m² | - |
| 1777976753 | 22.22° C | 79% | 1002.4 hPa | 0 mm | 4.92 m/s, 224° | 0 W/m² | - |
| 1777976451 | 22.22° C | 78% | 1002.3 hPa | 0 mm | 6.71 m/s, 205° | 0 W/m² | - |
| 1777976149 | 22.22° C | 79% | 1002.4 hPa | 0 mm | 5.81 m/s, 226° | 0 W/m² | - |
| 1777975845 | 22.78° C | 78% | 1002.3 hPa | 0 mm | 8.05 m/s, 235° | 0 W/m² | - |
* Rain latest hour (hover to see other rain measurements)
** Current wind speed in m/s (hover to see current wind gust speed)